Skagway, AK

5:40 AM AKDT on October 20, 2017 (GMT -0800)
Skagway

Weather History for PAGY - July, 2013

Change the Weather History Date:

Wednesday, July 17, 2013

  Actual Average Record
Temperature  
Mean Temperature 64 °F -  
Max Temperature 77 °F 62 °F 80 °F (1983)
Min Temperature 54 °F 50 °F 41 °F (1988)
Growing Degree Days 14 (Base 50)    
Moisture  
Dew Point 52 °F    
Average Humidity 71    
Maximum Humidity 86    
Minimum Humidity 42    
Precipitation  
Precipitation 0.00 in - - ()
Sea Level Pressure  
Sea Level Pressure 29.96 in    
Wind  
Wind Speed 5 mph (SW)    
Max Wind Speed 20 mph    
Max Gust Speed 29 mph    
Visibility 10 miles    
Events      
Averages and records for this station are not official NWS values.
T = Trace of Precipitation, MM = Missing Value Source: NWS Daily Summary

Daily Weather History Graph

Daily Weather History Graph

Search for Another Location

Airport or City:

Trip Planner

Search our weather history database for the weather conditions in past years. The results will help you decide how hot, cold, wet, or windy it might be!

Date:

Astronomy

Jul. 17, 2013 Rise Set
Actual Time 4:14 AM AKDT 9:59 PM AKDT
Civil Twilight 3:03 AM AKDT 11:09 PM AKDT
Nautical Twilight 1:39 AM AKDT 12:35 AM AKDT
Astronomical Twilight Sun does not rise Sun does not rise
Moon 4:35 PM AKDT (7/17) 12:00 AM AKDT (7/17)
Length of Visible Light 20h 06m
Length of Day
17h 44m
Waxing Gibbous, 68% of the Moon is Illuminated
Jul 17
Waxing Gibbous
Jul 22
Full
Jul 29
Last Quarter
Aug 6
New
Aug 14
First Quarter

Hourly Weather History & Observations

Time (AKDT) Temp. Dew Point Humidity Pressure Visibility Wind Dir Wind Speed Gust Speed Precip Events Conditions
12:53 AM 59.0 °F 53.1 °F 81% 30.03 in 10.0 mi Calm Calm - N/A   Clear
1:53 AM 57.9 °F 53.1 °F 84% 30.03 in 10.0 mi Calm Calm - N/A   Clear
2:53 AM 55.0 °F 51.1 °F 86% 30.03 in 10.0 mi Calm Calm - N/A   Clear
3:53 AM 55.0 °F 51.1 °F 86% 30.04 in 10.0 mi Calm Calm - N/A   Clear
4:53 AM 54.0 °F 50.0 °F 86% 30.02 in 10.0 mi NE 4.6 mph - N/A   Clear
5:53 AM 54.0 °F 50.0 °F 86% 30.02 in 10.0 mi NE 3.5 mph - N/A   Clear
6:53 AM 55.9 °F 51.1 °F 84% 30.01 in 10.0 mi NE 3.5 mph - N/A   Clear
7:53 AM 59.0 °F 51.1 °F 75% 30.00 in 10.0 mi NE 3.5 mph - N/A   Clear
8:53 AM 55.0 °F 50.0 °F 83% 29.99 in 10.0 mi SW 3.5 mph - N/A   Clear
9:53 AM 57.0 °F 51.1 °F 81% 29.97 in 10.0 mi WSW 4.6 mph - N/A   Clear
10:53 AM 59.0 °F 52.0 °F 78% 29.96 in 10.0 mi WSW 4.6 mph - N/A   Clear
11:53 AM 62.1 °F 52.0 °F 70% 29.96 in 10.0 mi WSW 4.6 mph - N/A   Clear
12:53 PM 64.9 °F 53.1 °F 65% 29.95 in 10.0 mi WSW 4.6 mph - N/A   Clear
1:53 PM 66.0 °F 53.1 °F 63% 29.93 in 10.0 mi WSW 6.9 mph - N/A   Clear
2:53 PM 68.0 °F 54.0 °F 61% 29.92 in 10.0 mi SW 15.0 mph 23.0 mph N/A   Clear
3:53 PM 64.9 °F 52.0 °F 63% 29.91 in 10.0 mi SW 17.3 mph - N/A   Clear
4:53 PM 72.0 °F 53.1 °F 51% 29.90 in 10.0 mi SSW 19.6 mph 28.8 mph N/A   Clear
5:53 PM 75.9 °F 51.1 °F 42% 29.89 in 10.0 mi SSW 18.4 mph 25.3 mph N/A   Clear
6:53 PM 66.9 °F 51.1 °F 57% 29.90 in 10.0 mi SW 16.1 mph - N/A   Clear
7:53 PM 71.1 °F 51.1 °F 49% 29.91 in 10.0 mi SW 15.0 mph 21.9 mph N/A   Clear
8:53 PM 66.0 °F 53.1 °F 63% 29.92 in 10.0 mi SW 11.5 mph - N/A   Clear
9:53 PM 64.9 °F 53.1 °F 65% 29.94 in 10.0 mi Calm Calm - N/A   Clear
10:53 PM 62.1 °F 53.1 °F 72% 29.96 in 10.0 mi NNE 5.8 mph - N/A   Clear
11:53 PM 61.0 °F 52.0 °F 72% 29.97 in 10.0 mi ENE 4.6 mph - N/A   Clear